Date String (YYYY-MM-DD hh:mm:ss) UTC,Instrument flags,Ambient pressure (hPa),Sample flow (lpm),Bypass flow (lpm),Sample temperature (°C),Ambient temperature (°C),ASC tube jacket temperature (°C),LED temperature (°C),Box temperature (°C),Sample RH (%),Span deviation,Mass concentration (μg/m³),Mass concentration (μg/m³),Mass concentration (μg/m³)
DateTimeUTC,F1_M11,P_M11,Q1_M11,Q2_M11,T1_M11,T2_M11,T3_M11,T4_M11,T5_M11,U1_M11,ZSPAN_M11,X0_M11,X2_M11,X1_M11
2022-05-24 19:00:00,,0824.9,5.00,0.00,26.8,25.9,00.0,35.7,28.7,20.9,-001.5,0013.63,0010.33,0009.85
2022-05-24 19:01:00,,0824.9,4.99,0.00,26.8,25.9,00.0,35.7,28.8,20.7,-001.2,0013.67,0010.34,0009.84
2022-05-24 19:02:00,,0824.9,5.00,0.00,26.8,25.9,00.0,35.7,28.8,21.1,-001.0,0013.62,0010.33,0009.80
2022-05-24 19:03:00,,0824.9,5.00,0.00,26.9,25.9,00.0,35.7,28.8,21.1,-001.0,0013.77,0010.28,0009.74
2022-05-24 19:04:00,,0824.9,5.00,0.00,26.9,25.9,00.0,35.7,28.8,21.5,-000.8,0014.05,0010.27,0009.72
2022-05-24 19:05:00,,0824.9,5.00,0.00,26.9,26.0,00.0,35.8,28.8,20.8,-000.8,0013.91,0010.24,0009.69
2022-05-24 19:06:00,,0824.9,4.99,0.00,26.9,26.0,00.0,35.8,28.8,20.5,-000.8,0014.00,0010.23,0009.67
2022-05-24 19:07:00,,0824.9,5.00,0.00,26.9,26.0,00.0,35.8,28.8,20.4,-000.8,0014.16,0010.22,0009.63
2022-05-24 19:08:00,,0824.9,5.00,0.00,26.9,26.0,00.0,35.8,28.8,20.5,-000.6,0014.03,0010.19,0009.61
2022-05-24 19:09:00,,0824.9,5.00,0.00,26.9,26.0,00.0,35.8,28.8,20.3,-000.3,0014.06,0010.19,0009.60
2022-05-24 19:10:00,,0824.8,5.00,0.00,26.9,26.0,00.0,35.8,28.9,20.5,-000.6,0013.73,0010.13,0009.55
2022-05-24 19:11:00,,0824.9,5.00,0.00,26.9,26.1,00.0,35.8,28.9,20.2,-000.8,0013.75,0010.10,0009.52
2022-05-24 19:12:00,,0824.9,4.99,0.00,27.0,26.1,00.0,35.8,28.9,20.5,-001.0,0013.58,0010.05,0009.49
2022-05-24 19:13:00,,0824.9,5.00,0.00,27.0,26.1,00.0,35.8,28.9,20.2,-001.1,0013.50,0010.04,0009.49
2022-05-24 19:14:00,,0824.9,4.99,0.00,27.0,26.1,00.0,35.8,28.9,20.3,-001.3,0013.40,0010.04,0009.49
2022-05-24 19:15:00,,0824.9,5.00,0.00,27.0,26.1,00.0,35.8,28.9,20.2,-001.2,0013.20,0010.03,0009.48
2022-05-24 19:16:00,,0824.8,5.00,0.00,27.0,26.0,00.0,35.9,28.8,20.1,-001.4,0013.63,0010.06,0009.50
2022-05-24 19:17:00,,0824.8,5.00,0.00,27.0,26.0,00.0,35.9,28.8,20.1,-001.1,0014.21,0010.10,0009.51
2022-05-24 19:18:00,,0824.8,5.00,0.00,27.0,26.0,00.0,35.9,28.8,20.7,-001.0,0014.00,0010.10,0009.54
2022-05-24 19:19:00,,0824.8,4.99,0.00,27.0,26.0,00.0,35.9,28.8,20.7,-001.0,0014.06,0010.14,0009.56
2022-05-24 19:20:00,,0824.7,4.99,0.00,26.9,26.0,00.0,35.9,28.8,20.0,-001.5,0014.04,0010.14,0009.55
2022-05-24 19:21:00,,0824.7,5.00,0.00,26.9,26.0,00.0,35.9,28.8,20.1,-001.5,0014.01,0010.14,0009.55
2022-05-24 19:22:00,,0824.7,5.02,0.00,26.9,25.9,00.0,35.9,28.8,20.1,-001.3,0013.88,0010.13,0009.55
2022-05-24 19:23:00,,0824.7,5.01,0.00,26.9,25.9,00.0,35.9,28.8,20.4,-001.3,0014.08,0010.16,0009.55
2022-05-24 19:24:00,,0824.7,5.00,0.00,26.9,25.9,00.0,35.9,28.8,20.2,-001.4,0014.46,0010.20,0009.55
2022-05-24 19:25:00,,0824.7,4.99,0.00,26.9,25.9,00.0,35.9,28.8,19.9,-001.0,0014.69,0010.20,0009.54
2022-05-24 19:26:00,,0824.7,5.01,0.00,26.9,25.9,00.0,35.9,28.8,20.4,-001.4,0014.81,0010.19,0009.53
2022-05-24 19:27:00,,0824.7,4.99,0.00,26.9,25.9,00.0,35.9,28.8,20.0,-001.4,0014.45,0010.15,0009.50
2022-05-24 19:28:00,,0824.7,5.00,0.00,26.9,25.9,00.0,35.9,28.8,19.9,-001.5,0013.79,0010.08,0009.45
2022-05-24 19:29:00,,0824.7,5.00,0.00,26.9,26.0,00.0,35.9,28.8,20.0,-001.7,0013.77,0010.03,0009.40
2022-05-24 19:30:00,,0824.8,5.00,0.00,26.9,26.0,00.0,35.9,28.8,20.0,-001.6,0013.70,0009.96,0009.35
2022-05-24 19:31:00,,0824.8,5.00,0.00,26.9,26.0,00.0,35.9,28.8,20.8,-001.5,0013.65,0009.93,0009.32
2022-05-24 19:32:00,,0824.7,4.99,0.00,26.9,26.0,00.0,35.9,28.8,20.3,-001.2,0013.62,0009.90,0009.29
2022-05-24 19:33:00,,0824.7,4.99,0.00,26.9,25.9,00.0,35.9,28.8,20.1,-001.4,0013.62,0009.88,0009.26
2022-05-24 19:34:00,,0824.6,4.99,0.00,26.9,25.9,00.0,35.9,28.8,20.1,-001.1,0013.71,0009.84,0009.24
2022-05-24 19:35:00,,0824.6,5.01,0.00,26.9,25.9,00.0,35.9,28.8,20.2,-001.0,0014.29,0009.82,0009.23
2022-05-24 19:36:00,,0824.6,5.00,0.00,26.9,25.9,00.0,35.9,28.8,20.3,-001.4,0013.79,0009.80,0009.22
2022-05-24 19:37:00,,0824.6,5.01,0.00,26.9,25.9,00.0,35.9,28.8,20.6,-001.2,0014.19,0009.79,0009.22
2022-05-24 19:38:00,,0824.6,4.99,0.00,26.9,25.9,00.0,35.9,28.8,21.0,-001.2,0014.54,0009.81,0009.22
2022-05-24 19:39:00,,0824.6,5.01,0.00,26.9,26.0,00.0,35.9,28.8,20.3,-001.1,0014.99,0009.85,0009.22
2022-05-24 19:40:00,,0824.6,5.01,0.00,27.0,26.0,00.0,35.9,28.9,20.3,-000.9,0015.18,0009.90,0009.23
2022-05-24 19:41:00,,0824.6,4.99,0.00,27.0,26.0,00.0,35.9,28.9,20.5,-001.1,0015.51,0009.92,0009.25
2022-05-24 19:42:00,,0824.6,5.00,0.00,27.0,26.1,00.0,35.9,28.9,20.5,-001.0,0016.60,0009.97,0009.28
2022-05-24 19:43:00,,0824.6,5.01,0.00,27.0,26.1,00.0,35.9,28.9,20.5,-001.3,0017.25,0009.97,0009.28
2022-05-24 19:44:00,,0824.6,5.00,0.00,27.0,26.1,00.0,35.9,28.9,20.1,-001.3,0017.54,0009.98,0009.29
2022-05-24 19:45:00,,0824.6,5.00,0.00,27.0,26.1,00.0,35.9,28.9,20.3,-001.5,0017.72,0009.95,0009.27
2022-05-24 19:46:00,,0824.6,5.02,0.00,27.1,26.2,00.0,35.9,29.0,20.3,-001.3,0017.45,0009.91,0009.24
2022-05-24 19:47:00,,0824.8,5.00,0.00,27.1,26.2,00.0,35.9,29.0,19.7,-001.0,0017.46,0009.90,0009.22
2022-05-24 19:48:00,,0824.6,4.99,0.00,27.1,26.2,00.0,35.9,29.0,19.3,-001.0,0017.25,0009.89,0009.18
2022-05-24 19:49:00,,0824.6,5.00,0.00,27.1,26.2,00.0,36.0,29.0,19.5,-000.8,0016.86,0009.86,0009.15
2022-05-24 19:50:00,,0824.6,5.01,0.00,27.1,26.2,00.0,36.0,29.0,19.7,-000.6,0017.18,0009.83,0009.13
2022-05-24 19:51:00,,0824.6,5.00,0.00,27.1,26.2,00.0,36.0,29.0,19.8,-000.5,0017.47,0009.78,0009.12
2022-05-24 19:52:00,,0824.6,4.99,0.00,27.1,26.2,00.0,36.0,29.0,19.8,-000.4,0017.94,0009.79,0009.13
2022-05-24 19:53:00,,0824.6,5.01,0.00,27.1,26.3,00.0,36.0,29.1,19.5,-000.3,0017.64,0009.75,0009.09
2022-05-24 19:54:00,,0824.6,5.00,0.00,27.1,26.3,00.0,36.0,29.1,19.2,-000.0,0016.63,0009.71,0009.07
2022-05-24 19:55:00,,0824.6,5.00,0.00,27.2,26.3,00.0,36.0,29.1,19.6,0000.1,0016.50,0009.73,0009.05
2022-05-24 19:56:00,,0824.6,4.99,0.00,27.2,26.3,00.0,36.0,29.1,19.5,0000.0,0016.28,0009.74,0009.06
2022-05-24 19:57:00,,0824.7,5.01,0.00,27.2,26.3,00.0,36.0,29.1,19.5,0000.1,0016.81,0009.75,0009.09
2022-05-24 19:58:00,,0824.6,5.00,0.00,27.2,26.3,00.0,36.1,29.1,19.5,0000.2,0017.70,0009.76,0009.11
2022-05-24 19:59:00,,0824.7,4.99,0.00,27.2,26.3,00.0,36.1,29.1,19.4,0000.6,0017.99,0009.79,0009.14
